Regional Weather Roundup
Issued by NWS

Home | Current Version | Previous Version | Text Only | Print | Product List | Glossary Off
Versions: 1 2 3 4 5 6 7 8 9 10 11 12 13 14 15 16 17 18 19 20 21 22 23 24 25 26 27 28 29 30 31 32 33 34 35 36 37 38 39 40 41 42 43 44 45 46 47 48 49 50

000
ASUS43 KOAX 020902
RWRNE

WEATHER ROUNDUP FOR NEBRASKA
NATIONAL WEATHER SERVICE OMAHA NE
400 AM CDT TUE SEP 02 2014

NOTES: SATELLITE DATA IS BEING USED TO AUGMENT CLOUD COVER ABOVE
       12000 FEET.
       "FAIR" INDICATES FEW OR NO CLOUDS BELOW 12,000 FEET WITH NO
       SIGNIFICANT WEATHER AND/OR OBSTRUCTIONS TO VISIBILITY.

  * THESE STATIONS DO NOT REPORT WEATHER SUCH AS RAIN...SNOW OR FOG.

NEZ001>004-019>022-054>056-021000-
NEBRASKA PANHANDLE

CITY           SKY/WX    TMP DP  RH WIND       PRES   REMARKS
SCOTTSBLUFF    CLEAR     45  44  97 CALM      30.08S
ALLIANCE       CLEAR     42  40  92 W3        30.07S
CHADRON        CLEAR     47  44  90 SW3       30.03F
KIMBALL        CLEAR     44  42  94 SW5       30.10R
SIDNEY         CLEAR     46  43  89 NW6       30.09F
$$

NEZ057>060-069>072-079>082-021000-
SOUTHWEST NEBRASKA

CITY           SKY/WX    TMP DP  RH WIND       PRES   REMARKS
NORTH PLATTE   CLEAR     48  47  96 CALM      30.04S
IMPERIAL       CLEAR     56  51  84 CALM      30.05S
LEXINGTON      CLEAR     53  52  95 NW5       30.03R
MCCOOK         CLEAR     55  53  93 CALM      30.04S
OGALLALA       CLEAR     47  46  97 W3        30.06R
$$

NEZ005>010-023>029-035>040-094-021000-
NORTH CENTRAL NEBRASKA

CITY           SKY/WX    TMP DP  RH WIND       PRES   REMARKS
VALENTINE      CLEAR     50  47  89 CALM      30.01S
BROKEN BOW     CLEAR     55  51  86 NW5       30.01S
O`NEILL        CLEAR     55  54  98 SW5       29.98S
ORD            CLEAR     52  50  93 CALM      29.99R
$$

NEZ041-046>049-061>064-073>077-083>087-021000-
SOUTH CENTRAL NEBRASKA

CITY           SKY/WX    TMP DP  RH WIND       PRES   REMARKS
GRAND ISLAND   CLEAR     56  53  90 W8        30.00R
AURORA         CLEAR     54  54 100 W5        29.99R
HASTINGS       CLEAR     56  52  86 MISG      30.00R
HEBRON         CLEAR     57  54  90 CALM      29.99R
HOLDREGE       PTCLDY    56  55  95 CALM      30.01F
KEARNEY *      CLEAR     55  54  94 S7        30.01S
YORK           CLEAR     55 N/A N/A W6        29.98S
$$

NEZ011>018-030>034-042>045-021000-
NORTHEAST NEBRASKA

CITY           SKY/WX    TMP DP  RH WIND       PRES   REMARKS
NORFOLK        CLEAR     57  54  89 W9        29.95F
ALBION         CLEAR     53  52  95 NW7       29.97S
BLAIR          PTCLDY    59  57  91 W6        29.93R
FREMONT        CLEAR     58  56  94 NW8       29.96R
TEKAMAH        CLEAR     58  57  97 W5        29.95R
WAYNE          CLEAR     56  54  95 CALM      29.96R
$$

NEZ050>053-065>068-078-088>093-021000-
SOUTHEAST NEBRASKA

CITY           SKY/WX    TMP DP  RH WIND       PRES   REMARKS
LINCOLN        CLEAR     58  55  90 N6        29.97R
OMAHA EPPLEY   PTCLDY    61  57  87 NW3       29.93S
BEATRICE       CLEAR     58  57  99 CALM      29.96R
FALLS CITY     CLEAR     61  59  93 CALM      29.91F
NEBRASKA CITY  CLEAR     60  60 100 W5        29.94R
PLATTSMOUTH    CLEAR     60  58  92 CALM      29.94R
$$

NEZ044-045-051>053-067-021000-
OMAHA AREA

CITY           SKY/WX    TMP DP  RH WIND       PRES   REMARKS
OMAHA EPPLEY   PTCLDY    61  57  87 NW3       29.93S
BLAIR          PTCLDY    59  57  91 W6        29.93R
FREMONT        CLEAR     58  56  94 NW8       29.96R
MILLARD        CLEAR     60  58  94 CALM      29.93S
OFFUTT AFB     PTCLDY    60  60  99 SW3       29.93R
PLATTSMOUTH    CLEAR     60  58  92 CALM      29.94R
WAHOO          FAIR      58  56  91 SW5       29.95R
$$



USA.gov is the U.S. government's official web portal to all federal, state and local government web resources and services.